When you browse on this site, cookies collect data to enhance your experience and personalize the content and advertising you see.
Visit our Privacy Policy to learn more. By continuing to use the site, you agree to this use of cookies and data.
  • Em Portugal
  • Lista de países
  • Para 7 dias
  • Temperatura da água
  • Mapas de satélite
  • Mapa do tempo
  • Widgets de tempo
  • user-avatar
    Iniciar Sessão

    Previsão horária em Neuquén

    Hoje, 27 Março, Quarta-feira

    Tempo Temperatura Precipitação Vento Pressão Humidade
    00:00 +16°C° 0 mm 6 m/s 739 mmHg 34%
    01:00 +16°C° 0 mm 6 m/s 739 mmHg 36%
    02:00 +16°C° 0 mm 6 m/s 739 mmHg 38%
    03:00 +15°C° 0 mm 5 m/s 738 mmHg 39%
    04:00 +15°C° 0 mm 5 m/s 738 mmHg 41%
    05:00 +15°C° 0 mm 6 m/s 738 mmHg 42%
    06:00 +15°C° 0 mm 6 m/s 738 mmHg 42%
    07:00 +16°C° 0 mm 7 m/s 738 mmHg 43%
    08:00 +18°C° 0 mm 7 m/s 738 mmHg 41%
    09:00 +21°C° 0 mm 8 m/s 738 mmHg 40%
    10:00 +23°C° 0 mm 8 m/s 737 mmHg 38%
    11:00 +24°C° 0 mm 9 m/s 737 mmHg 36%
    12:00 +27°C° 0 mm 10 m/s 736 mmHg 34%
    13:00 +28°C° 0 mm 10 m/s 736 mmHg 33%
    14:00 +28°C° 0 mm 10 m/s 735 mmHg 33%
    15:00 +28°C° 0 mm 10 m/s 734 mmHg 33%
    16:00 +29°C° 0 mm 9 m/s 734 mmHg 33%
    17:00 +27°C° 0 mm 9 m/s 734 mmHg 35%
    18:00 +26°C° 0 mm 8 m/s 734 mmHg 36%
    19:00 +24°C° 0 mm 7 m/s 734 mmHg 38%
    20:00 +24°C° 0 mm 7 m/s 734 mmHg 40%
    21:00 +23°C° 0 mm 7 m/s 734 mmHg 41%
    22:00 +23°C° 0 mm 7 m/s 734 mmHg 43%
    23:00 +22°C° 0 mm 6 m/s 734 mmHg 46%

    Amanhã, 28 Março, Quinta-feira

    Tempo Temperatura Precipitação Vento Pressão Humidade
    00:00 +21°C° 0 mm 6 m/s 734 mmHg 48%
    01:00 +21°C° 0 mm 5 m/s 734 mmHg 51%
    02:00 +20°C° 0 mm 4 m/s 734 mmHg 54%
    03:00 +19°C° 0 mm 4 m/s 734 mmHg 58%
    04:00 +19°C° 0 mm 3 m/s 734 mmHg 61%
    05:00 +19°C° 0 mm 3 m/s 734 mmHg 60%
    06:00 +19°C° 0 mm 2 m/s 734 mmHg 59%
    07:00 +20°C° 0 mm 2 m/s 735 mmHg 57%
    08:00 +23°C° 0 mm 2 m/s 735 mmHg 50%
    09:00 +25°C° 0 mm 1 m/s 735 mmHg 43%
    10:00 +25°C° 0 mm 0 m/s 736 mmHg 36%
    11:00 +26°C° 0 mm 0 m/s 735 mmHg 32%
    12:00 +28°C° 0 mm 0 m/s 735 mmHg 28%
    13:00 +29°C° 0 mm 0 m/s 734 mmHg 24%
    14:00 +32°C° 0 mm 1 m/s 734 mmHg 22%
    15:00 +32°C° 0 mm 1 m/s 734 mmHg 20%
    16:00 +32°C° 0 mm 2 m/s 733 mmHg 18%
    17:00 +31°C° 0 mm 2 m/s 733 mmHg 20%
    18:00 +29°C° 0 mm 1 m/s 733 mmHg 23%
    19:00 +27°C° 0 mm 1 m/s 733 mmHg 25%
    20:00 +27°C° 0 mm 3 m/s 733 mmHg 29%
    21:00 +27°C° 0 mm 4 m/s 734 mmHg 32%
    22:00 +27°C° 0 mm 6 m/s 734 mmHg 36%
    23:00 +26°C° 0 mm 6 m/s 733 mmHg 39%

    Depois de amanhã, 29 Março, Sexta-feira

    Tempo Temperatura Precipitação Vento Pressão Humidade
    00:00 +24°C° 0 mm 6 m/s 733 mmHg 42%
    01:00 +25°C° 0 mm 5 m/s 733 mmHg 45%
    02:00 +23°C° 0 mm 5 m/s 732 mmHg 49%
    03:00 +22°C° 0 mm 4 m/s 732 mmHg 53%
    04:00 +21°C° 0 mm 3 m/s 731 mmHg 57%
    05:00 +21°C° 0 mm 3 m/s 731 mmHg 56%
    06:00 +22°C° 0 mm 3 m/s 731 mmHg 55%
    07:00 +22°C° 0 mm 3 m/s 731 mmHg 54%
    08:00 +25°C° 0 mm 3 m/s 731 mmHg 44%
    09:00 +27°C° 0 mm 3 m/s 731 mmHg 34%
    10:00 +29°C° 0 mm 3 m/s 731 mmHg 24%
    11:00 +32°C° 0 mm 4 m/s 731 mmHg 20%
    12:00 +33°C° 0 mm 5 m/s 730 mmHg 16%
    13:00 +34°C° 0 mm 6 m/s 730 mmHg 12%
    14:00 +34°C° 0 mm 6 m/s 729 mmHg 11%
    15:00 +34°C° 0 mm 6 m/s 729 mmHg 9%
    16:00 +35°C° 0 mm 6 m/s 729 mmHg 8%
    17:00 +33°C° 0 mm 7 m/s 729 mmHg 10%
    18:00 +30°C° 0 mm 7 m/s 730 mmHg 12%
    19:00 +28°C° 0 mm 8 m/s 730 mmHg 15%
    20:00 +27°C° 0 mm 8 m/s 731 mmHg 18%
    21:00 +26°C° 0 mm 8 m/s 732 mmHg 21%
    22:00 +23°C° 0 mm 8 m/s 732 mmHg 24%
    23:00 +23°C° 0 mm 7 m/s 732 mmHg 25%

    30 Março, Sábado

    Tempo Temperatura Precipitação Vento Pressão Humidade
    00:00 +22°C° 0 mm 6 m/s 733 mmHg 26%
    01:00 +21°C° 0 mm 5 m/s 733 mmHg 27%
    02:00 +21°C° 0 mm 5 m/s 733 mmHg 27%
    03:00 +21°C° 0 mm 4 m/s 733 mmHg 26%
    04:00 +20°C° 0 mm 4 m/s 733 mmHg 26%
    05:00 +20°C° 0 mm 5 m/s 734 mmHg 27%
    06:00 +21°C° 0 mm 5 m/s 735 mmHg 27%
    07:00 +21°C° 0 mm 5 m/s 735 mmHg 28%
    08:00 +22°C° 0 mm 4 m/s 735 mmHg 28%
    09:00 +23°C° 0 mm 4 m/s 736 mmHg 27%
    10:00 +26°C° 0 mm 3 m/s 736 mmHg 27%
    11:00 +27°C° 0 mm 2 m/s 735 mmHg 26%
    12:00 +27°C° 0 mm 1 m/s 735 mmHg 25%
    13:00 +26°C° 0 mm 0 m/s 735 mmHg 24%
    14:00 +26°C° 0 mm 0 m/s 734 mmHg 24%
    15:00 +28°C° 0 mm 1 m/s 734 mmHg 23%
    16:00 +29°C° 0 mm 1 m/s 734 mmHg 22%
    17:00 +27°C° 0 mm 1 m/s 734 mmHg 25%
    18:00 +26°C° 0 mm 1 m/s 734 mmHg 27%
    19:00 +25°C° 0 mm 1 m/s 734 mmHg 30%
    20:00 +25°C° 0 mm 2 m/s 734 mmHg 30%
    21:00 +24°C° 0 mm 2 m/s 734 mmHg 31%
    22:00 +24°C° 0 mm 3 m/s 734 mmHg 31%
    23:00 +22°C° 0 mm 3 m/s 734 mmHg 34%

    31 Março, Domingo

    Tempo Temperatura Precipitação Vento Pressão Humidade
    00:00 +21°C° 0 mm 4 m/s 734 mmHg 37%
    01:00 +21°C° 0 mm 5 m/s 734 mmHg 39%
    02:00 +20°C° 0 mm 4 m/s 733 mmHg 42%
    03:00 +19°C° 0 mm 4 m/s 733 mmHg 44%
    04:00 +19°C° 0 mm 3 m/s 732 mmHg 46%
    05:00 +19°C° 0 mm 4 m/s 732 mmHg 45%
    06:00 +20°C° 0 mm 4 m/s 732 mmHg 45%
    07:00 +20°C° 0 mm 5 m/s 732 mmHg 44%
    08:00 +23°C° 0 mm 5 m/s 732 mmHg 38%
    09:00 +27°C° 0 mm 6 m/s 732 mmHg 31%
    10:00 +29°C° 0 mm 7 m/s 732 mmHg 24%
    11:00 +30°C° 0 mm 6 m/s 732 mmHg 21%
    12:00 +33°C° 0 mm 5 m/s 731 mmHg 18%
    13:00 +34°C° 0 mm 5 m/s 730 mmHg 16%
    14:00 +34°C° 0 mm 5 m/s 730 mmHg 14%
    15:00 +34°C° 0 mm 4 m/s 730 mmHg 12%
    16:00 +34°C° 0 mm 4 m/s 729 mmHg 11%
    17:00 +31°C° 0 mm 3 m/s 730 mmHg 12%
    18:00 +29°C° 0 mm 3 m/s 730 mmHg 13%
    19:00 +27°C° 0 mm 2 m/s 730 mmHg 15%
    20:00 +27°C° 0 mm 4 m/s 731 mmHg 15%
    21:00 +26°C° 0 mm 7 m/s 731 mmHg 15%
    22:00 +26°C° 0 mm 9 m/s 731 mmHg 16%
    23:00 +24°C° 0 mm 8 m/s 732 mmHg 18%

    1 Abril, Segunda-feira

    Tempo Temperatura Precipitação Vento Pressão Humidade
    00:00 +23°C° 0 mm 7 m/s 732 mmHg 21%
    01:00 +22°C° 0 mm 7 m/s 732 mmHg 24%
    02:00 +21°C° 0 mm 6 m/s 732 mmHg 25%
    03:00 +20°C° 0 mm 5 m/s 732 mmHg 26%
    04:00 +19°C° 0 mm 4 m/s 732 mmHg 27%
    05:00 +20°C° 0 mm 5 m/s 733 mmHg 28%
    06:00 +20°C° 0 mm 5 m/s 733 mmHg 30%
    07:00 +20°C° 0 mm 5 m/s 733 mmHg 31%
    08:00 +22°C° 0 mm 5 m/s 734 mmHg 31%
    09:00 +23°C° 0 mm 5 m/s 734 mmHg 30%
    10:00 +26°C° 0 mm 5 m/s 734 mmHg 30%
    11:00 +27°C° 0 mm 4 m/s 734 mmHg 28%
    12:00 +28°C° 0 mm 2 m/s 734 mmHg 25%
    13:00 +29°C° 0 mm 1 m/s 733 mmHg 23%
    14:00 +29°C° 0 mm 2 m/s 733 mmHg 22%
    15:00 +29°C° 0 mm 2 m/s 733 mmHg 21%
    16:00 +30°C° 0 mm 2 m/s 732 mmHg 19%
    17:00 +28°C° 0 mm 2 m/s 732 mmHg 21%
    18:00 +27°C° 0 mm 2 m/s 733 mmHg 22%
    19:00 +26°C° 0 mm 1 m/s 733 mmHg 24%
    20:00 +25°C° 0 mm 2 m/s 733 mmHg 24%
    21:00 +25°C° 0 mm 3 m/s 733 mmHg 25%
    22:00 +25°C° 0 mm 4 m/s 733 mmHg 25%
    23:00 +25°C° 0 mm 4 m/s 733 mmHg 29%
    Mostrar mais